Weather History for Belleville, IL

Change the Weather History Date:

Friday, March 14, 2014

  Actual Average Record
Temperature  
Mean Temperature 54 °F -  
Max Temperature 68 °F 55 °F 84 °F (2012)
Min Temperature 40 °F 32 °F 10 °F (1993)
Degree Days  
Heating Degree Days 12    
Growing Degree Days 4 (Base 50)    
Moisture  
Dew Point 31 °F    
Average Humidity 47    
Maximum Humidity 72    
Minimum Humidity 26    
Precipitation  
Precipitation 0.00 in - - ()
Sea Level Pressure  
Sea Level Pressure 29.89 in    
Wind  
Wind Speed 10 mph (SW)    
Max Wind Speed 22 mph    
Max Gust Speed 29 mph    
Visibility 10 miles    
Events      
Averages and records for this station are not official NWS values.
T = Trace of Precipitation, MM = Missing Value Source: NWS Daily Summary

Daily Weather History Graph

Daily Weather History Graph

Search for Another Location

Airport:

Trip Planner

Search our weather history database for the weather conditions in past years. The results will help you decide how hot, cold, wet, or windy it might be!

Date:

Astronomy

Mar. 14, 2014 Rise Set
Actual Time 7:12 AM CDT 7:05 PM CDT
Civil Twilight 6:45 AM CDT 7:31 PM CDT
Nautical Twilight 6:14 AM CDT 8:02 PM CDT
Astronomical Twilight 5:43 AM CDT 8:33 PM CDT
Moon 5:28 PM CDT (3/14) 5:51 AM CDT (3/14)
Length of Visible Light 12h 46m
Length of Day
11h 53m
Waxing Gibbous, 96% of the Moon is Illuminated
Mar 14
Waxing Gibbous
Mar 16
Full
Mar 23
Last Quarter
Mar 30
New
Apr 7
First Quarter

Hourly Weather History & Observations

Time (CDT) Temp. Windchill Dew Point Humidity Pressure Visibility Wind Dir Wind Speed Gust Speed Precip Events Conditions
12:58 AM 44.4 °F 40.5 °F 34.9 °F 69% 29.96 in 10.0 mi SSW 6.9 mph - N/A   Clear
1:58 AM 44.4 °F 40.5 °F 33.6 °F 66% 29.94 in 10.0 mi SSW 6.9 mph - N/A   Clear
2:58 AM 43.7 °F 39.1 °F 33.1 °F 66% 29.94 in 10.0 mi South 8.1 mph - N/A   Clear
3:58 AM 42.1 °F 38.4 °F 31.3 °F 66% 29.92 in 10.0 mi South 5.8 mph - N/A   Clear
4:58 AM 40.3 °F 35.5 °F 32.0 °F 72% 29.91 in 10.0 mi South 6.9 mph - N/A   Partly Cloudy
5:58 AM 41.2 °F 36.6 °F 31.8 °F 69% 29.91 in 10.0 mi South 6.9 mph - N/A   Partly Cloudy
6:58 AM 43.3 °F 37.7 °F 32.7 °F 66% 29.90 in 10.0 mi South 10.4 mph - N/A   Clear
7:58 AM 46.4 °F 41.1 °F 31.8 °F 57% 29.90 in 10.0 mi South 11.5 mph - N/A   Clear
8:58 AM 49.1 °F - 32.0 °F 52% 29.88 in 10.0 mi South 15.0 mph - N/A   Partly Cloudy
9:58 AM 55.0 °F - 32.9 °F 43% 29.84 in 10.0 mi South 20.7 mph 27.6 mph N/A   Clear
10:58 AM 59.0 °F - 32.9 °F 37% 29.85 in 10.0 mi SSW 15.0 mph 24.2 mph N/A   Partly Cloudy
11:58 AM 61.9 °F - 30.9 °F 31% 29.82 in 10.0 mi SSW 21.9 mph 28.8 mph N/A   Mostly Cloudy
12:58 PM 62.4 °F - 31.6 °F 31% 29.83 in 10.0 mi SSW 13.8 mph 23.0 mph N/A   Mostly Cloudy
1:58 PM 64.0 °F - 31.5 °F 30% 29.82 in 10.0 mi SW 17.3 mph 25.3 mph N/A   Mostly Cloudy
2:58 PM 65.3 °F - 31.6 °F 28% 29.81 in 10.0 mi SW 18.4 mph - N/A   Partly Cloudy
3:58 PM 67.8 °F - 32.0 °F 26% 29.82 in 10.0 mi WSW 19.6 mph 24.2 mph N/A   Clear
4:58 PM 67.3 °F - 30.7 °F 26% 29.83 in 10.0 mi WNW 18.4 mph 25.3 mph N/A   Clear
5:58 PM 65.8 °F - 30.7 °F 27% 29.84 in 10.0 mi WNW 12.7 mph 24.2 mph N/A   Clear
6:58 PM 62.6 °F - 28.6 °F 28% 29.88 in 10.0 mi West 12.7 mph - N/A   Clear
7:58 PM 52.7 °F - 30.2 °F 42% 29.91 in 10.0 mi WNW 8.1 mph - N/A   Clear
8:58 PM 53.6 °F - 29.7 °F 40% 29.94 in 10.0 mi NW 5.8 mph - N/A   Clear
9:58 PM 45.9 °F 41.7 °F 29.3 °F 52% 29.97 in 10.0 mi WNW 8.1 mph - N/A   Clear
10:58 PM 51.1 °F - 28.2 °F 41% 29.99 in 10.0 mi NW 5.8 mph - N/A   Clear
11:58 PM 43.3 °F 41.7 °F 28.8 °F 56% 30.01 in 10.0 mi North 3.5 mph - N/A   Clear